When you browse on this site, cookies collect data to enhance your experience and personalize the content and advertising you see.
Visit our Privacy Policy to learn more. By continuing to use the site, you agree to this use of cookies and data.
  • In Czech Republic
  • List of Countries
  • For 7 days
  • Water Temperature
  • Weather Map
  • Weather Widgets
  • user-avatar
    Login

    Hourly Weather Gjirokaster

    Today, 25 January, Saturday

    Time Temperature Precipitation Wind Pressure Humidity
    00:00 +2°C° 0 mm 1 mps 657 mmHg 87%
    01:00 +2°C° 0 mm 1 mps 657 mmHg 87%
    02:00 +2°C° 0 mm 1 mps 656 mmHg 87%
    03:00 +1°C° 0 mm 1 mps 656 mmHg 87%
    04:00 +1°C° 0 mm 1 mps 656 mmHg 87%
    05:00 +1°C° 0 mm 1 mps 656 mmHg 87%
    06:00 -1°C° 0 mm 2 mps 656 mmHg 87%
    07:00 -1°C° 0 mm 2 mps 656 mmHg 87%
    08:00 +1°C° 0 mm 2 mps 656 mmHg 84%
    09:00 +3°C° 0 mm 2 mps 657 mmHg 82%
    10:00 +4°C° 0 mm 2 mps 657 mmHg 79%
    11:00 +4°C° 0.1 mm 2 mps 657 mmHg 77%
    12:00 +5°C° 0.1 mm 2 mps 657 mmHg 75%
    13:00 +5°C° 0.1 mm 2 mps 656 mmHg 73%
    14:00 +5°C° 0 mm 2 mps 656 mmHg 76%
    15:00 +5°C° 0 mm 2 mps 656 mmHg 78%
    16:00 +4°C° 0 mm 2 mps 655 mmHg 81%
    17:00 +5°C° 0 mm 1 mps 655 mmHg 84%
    18:00 +4°C° 0 mm 1 mps 655 mmHg 87%
    19:00 +3°C° 0 mm 1 mps 655 mmHg 90%
    20:00 +3°C° 0 mm 1 mps 655 mmHg 91%
    21:00 +2°C° 0 mm 2 mps 655 mmHg 91%
    22:00 +2°C° 0 mm 2 mps 655 mmHg 91%
    23:00 +2°C° 0 mm 2 mps 655 mmHg 91%

    Tomorrow, 26 January, Sunday

    Time Temperature Precipitation Wind Pressure Humidity
    00:00 +2°C° 0 mm 2 mps 655 mmHg 91%
    01:00 +2°C° 0 mm 2 mps 655 mmHg 91%
    02:00 +2°C° 0 mm 2 mps 655 mmHg 90%
    03:00 +2°C° 0 mm 2 mps 654 mmHg 90%
    04:00 +2°C° 0 mm 2 mps 654 mmHg 90%
    05:00 +2°C° 0 mm 2 mps 654 mmHg 89%
    06:00 +2°C° 0 mm 2 mps 654 mmHg 88%
    07:00 +2°C° 0 mm 2 mps 654 mmHg 88%
    08:00 +3°C° 0 mm 2 mps 654 mmHg 83%
    09:00 +4°C° 0 mm 2 mps 655 mmHg 79%
    10:00 +5°C° 0 mm 2 mps 655 mmHg 74%
    11:00 +5°C° 0 mm 2 mps 655 mmHg 71%
    12:00 +6°C° 0 mm 2 mps 655 mmHg 69%
    13:00 +7°C° 0 mm 2 mps 654 mmHg 66%
    14:00 +6°C° 0.1 mm 2 mps 654 mmHg 70%
    15:00 +6°C° 0.1 mm 2 mps 654 mmHg 75%
    16:00 +5°C° 0.1 mm 2 mps 653 mmHg 79%
    17:00 +5°C° 0 mm 2 mps 653 mmHg 80%
    18:00 +4°C° 0 mm 2 mps 653 mmHg 81%
    19:00 +4°C° 0 mm 2 mps 652 mmHg 82%
    20:00 +4°C° 0 mm 2 mps 652 mmHg 82%
    21:00 +3°C° 0 mm 2 mps 652 mmHg 82%
    22:00 +3°C° 0 mm 2 mps 652 mmHg 82%
    23:00 +3°C° 0.1 mm 2 mps 652 mmHg 83%

    Day after tomorrow, 27 January, Monday

    Time Temperature Precipitation Wind Pressure Humidity
    00:00 +3°C° 0.1 mm 2 mps 652 mmHg 83%
    01:00 +3°C° 0.1 mm 2 mps 651 mmHg 83%
    02:00 +3°C° 0.8 mm 2 mps 651 mmHg 86%
    03:00 +3°C° 0.8 mm 2 mps 651 mmHg 89%
    04:00 +4°C° 0.8 mm 1 mps 650 mmHg 92%
    05:00 +4°C° 4.1 mm 1 mps 650 mmHg 93%
    06:00 +4°C° 4.1 mm 1 mps 650 mmHg 94%
    07:00 +3°C° 4.1 mm 2 mps 650 mmHg 95%
    08:00 +3°C° 2.1 mm 2 mps 650 mmHg 94%
    09:00 +3°C° 2.1 mm 2 mps 650 mmHg 93%
    10:00 +2°C° 2.1 mm 3 mps 650 mmHg 92%
    11:00 +3°C° 1.1 mm 2 mps 649 mmHg 91%
    12:00 +3°C° 1.1 mm 2 mps 649 mmHg 90%
    13:00 +4°C° 1.1 mm 1 mps 649 mmHg 90%
    14:00 +4°C° 1.2 mm 1 mps 649 mmHg 91%
    15:00 +4°C° 1.2 mm 1 mps 648 mmHg 92%
    16:00 +4°C° 1.2 mm 1 mps 648 mmHg 93%
    17:00 +2°C° 0.6 mm 2 mps 648 mmHg 93%
    18:00 +2°C° 0.6 mm 2 mps 649 mmHg 93%
    19:00 +2°C° 0.6 mm 2 mps 649 mmHg 92%
    20:00 +2°C° 0 mm 2 mps 649 mmHg 92%
    21:00 +2°C° 0 mm 2 mps 649 mmHg 92%
    22:00 +2°C° 0 mm 2 mps 649 mmHg 92%
    23:00 +1°C° 0 mm 2 mps 649 mmHg 92%

    28 January, Tuesday

    Time Temperature Precipitation Wind Pressure Humidity
    00:00 +1°C° 0 mm 2 mps 649 mmHg 92%
    01:00 +1°C° 0 mm 2 mps 649 mmHg 92%
    02:00 +1°C° 0 mm 2 mps 649 mmHg 92%
    03:00 -1°C° 0 mm 2 mps 649 mmHg 91%
    04:00 -1°C° 0 mm 2 mps 649 mmHg 90%
    05:00 -1°C° 0 mm 2 mps 649 mmHg 90%
    06:00 +1°C° 0 mm 1 mps 649 mmHg 90%
    07:00 0°C° 0 mm 1 mps 649 mmHg 90%
    08:00 +2°C° 0 mm 1 mps 649 mmHg 84%
    09:00 +3°C° 0 mm 1 mps 650 mmHg 79%
    10:00 +5°C° 0 mm 1 mps 651 mmHg 73%
    11:00 +5°C° 0 mm 1 mps 651 mmHg 70%
    12:00 +6°C° 0 mm 1 mps 650 mmHg 67%
    13:00 +6°C° 0 mm 1 mps 650 mmHg 64%
    14:00 +6°C° 0 mm 1 mps 650 mmHg 68%
    15:00 +6°C° 0 mm 1 mps 650 mmHg 72%
    16:00 +5°C° 0 mm 1 mps 649 mmHg 75%
    17:00 +4°C° 0 mm 1 mps 649 mmHg 79%
    18:00 +3°C° 0 mm 1 mps 649 mmHg 84%
    19:00 +1°C° 0 mm 2 mps 649 mmHg 88%
    20:00 +1°C° 0 mm 2 mps 649 mmHg 88%
    21:00 +1°C° 0 mm 2 mps 649 mmHg 88%
    22:00 +1°C° 0 mm 2 mps 650 mmHg 88%
    23:00 +1°C° 0 mm 2 mps 649 mmHg 89%

    29 January, Wednesday

    Time Temperature Precipitation Wind Pressure Humidity
    00:00 +1°C° 0 mm 2 mps 649 mmHg 90%
    01:00 +1°C° 0 mm 2 mps 649 mmHg 90%
    02:00 +1°C° 0 mm 2 mps 649 mmHg 91%
    03:00 +1°C° 0 mm 2 mps 649 mmHg 91%
    04:00 +1°C° 0 mm 2 mps 649 mmHg 92%
    05:00 +1°C° 0 mm 2 mps 649 mmHg 92%
    06:00 +2°C° 0 mm 2 mps 649 mmHg 92%
    07:00 +2°C° 0 mm 2 mps 649 mmHg 93%
    08:00 +2°C° 0 mm 2 mps 649 mmHg 92%
    09:00 +3°C° 0 mm 2 mps 649 mmHg 91%
    10:00 +4°C° 0 mm 2 mps 650 mmHg 90%
    11:00 +3°C° 0.1 mm 3 mps 649 mmHg 89%
    12:00 +4°C° 0.1 mm 3 mps 649 mmHg 88%
    13:00 +4°C° 0.1 mm 3 mps 649 mmHg 87%
    14:00 +4°C° 0.2 mm 3 mps 649 mmHg 87%
    15:00 +5°C° 0.2 mm 2 mps 649 mmHg 88%
    16:00 +5°C° 0.2 mm 2 mps 649 mmHg 89%
    17:00 +5°C° 0.1 mm 2 mps 649 mmHg 91%
    18:00 +4°C° 0.1 mm 2 mps 649 mmHg 93%
    19:00 +4°C° 0.1 mm 1 mps 648 mmHg 94%
    20:00 +4°C° 0.1 mm 1 mps 648 mmHg 94%
    21:00 +4°C° 0.1 mm 1 mps 648 mmHg 93%
    22:00 +3°C° 0.1 mm 1 mps 648 mmHg 93%
    23:00 +3°C° 0 mm 1 mps 648 mmHg 91%

    30 January, Thursday

    Time Temperature Precipitation Wind Pressure Humidity
    00:00 +3°C° 0 mm 1 mps 648 mmHg 89%
    01:00 +3°C° 0 mm 1 mps 648 mmHg 88%
    02:00 +3°C° 0.1 mm 1 mps 648 mmHg 88%
    03:00 +3°C° 0.1 mm 1 mps 647 mmHg 89%
    04:00 +1°C° 0.1 mm 0 mps 647 mmHg 89%
    05:00 +1°C° 0.1 mm 0 mps 647 mmHg 89%
    06:00 +2°C° 0.1 mm 1 mps 647 mmHg 89%
    07:00 +2°C° 0.1 mm 1 mps 648 mmHg 89%
    08:00 +3°C° 0 mm 1 mps 648 mmHg 85%
    09:00 +5°C° 0 mm 1 mps 649 mmHg 80%
    10:00 +6°C° 0 mm 1 mps 650 mmHg 75%
    11:00 +7°C° 0 mm 1 mps 650 mmHg 72%
    12:00 +6°C° 0 mm 2 mps 650 mmHg 70%
    13:00 +6°C° 0 mm 2 mps 650 mmHg 67%
    14:00 +6°C° 0 mm 2 mps 650 mmHg 70%
    15:00 +6°C° 0 mm 2 mps 650 mmHg 72%
    16:00 +5°C° 0 mm 2 mps 650 mmHg 75%
    17:00 +5°C° 0 mm 1 mps 650 mmHg 79%
    18:00 +4°C° 0 mm 1 mps 649 mmHg 82%
    19:00 +3°C° 0 mm 1 mps 649 mmHg 86%
    20:00 +3°C° 0 mm 1 mps 650 mmHg 85%
    21:00 +3°C° 0 mm 1 mps 650 mmHg 84%
    22:00 +2°C° 0 mm 1 mps 650 mmHg 83%
    23:00 +2°C° 0 mm 1 mps 650 mmHg 84%
    Show more